[[{"header":{"parameterUnit":"m.s-1","parameterCategory":1,"la1":30.2991,"la2":30.254,"lo1":-89.0895,"lo2":-89.0444,"dy":0.0017,"dx":0.0017,"nx":28,"ny":28,"refTime":"2025-06-19T21:00:00:Z","depth":0,"parameterNumber":2,"parameterNumberName":"U-component_of_WINDS"},"data":[0,0,0,0,0,0,0,0,0,0,0,0,0,0,0,0,0,0,0,0,0,0,0,0,0,0,0,0,0,0,0,0,0,0,0,0,0,0,0,0,0,0,0,0,0,0,0,0,0,0,0,0,0,0,0,0,0,0,2.5106,2.5108,0,2.5259,2.5261,2.5263,2.5192,2.5188,2.5184,2.518,2.5352,2.536,2.5368,0,0,0,0,0,0,0,0,0,0,0,0,0,2.4762,2.4769,2.5106,2.5108,2.511,2.5259,2.5261,2.5263,2.5192,2.5188,2.5183,2.5178,2.5349,2.5359,2.5368,0,0,0,0,0,0,0,0,0,0,0,0,0,2.4914,2.4771,2.5106,2.5092,2.5092,2.5259,2.5261,2.5264,2.5193,2.5187,2.5182,2.5176,2.5346,2.5358,2.537,2.5563,0,0,2.5407,2.5413,0,0,0,0,0,0,0,0,2.4905,2.4926,2.5092,2.5093,2.5094,2.52,2.5203,2.5365,2.5195,2.5156,2.518,2.5173,2.5307,2.5322,2.5364,2.5571,2.5578,2.5408,2.5416,2.5421,2.5425,0,0,0,0,0,0,0,2.4895,2.4919,2.5167,2.5095,2.5096,2.5082,2.5097,2.5233,2.5263,2.5159,2.5154,2.5172,2.5306,2.5352,2.5368,2.5581,2.5408,2.5419,2.5427,2.5431,2.595,2.5956,0,0,0,0,0,0,2.4883,2.4911,2.5162,2.5172,2.4983,2.5093,2.5109,2.5172,2.5261,2.5268,2.5177,2.5168,2.5334,2.5353,2.5373,2.5602,2.5421,2.5433,2.544,2.5943,2.5951,2.5958,0,0,0,0,0,0,2.4876,2.4906,2.5156,2.504,2.5071,2.5105,2.5176,2.5178,2.5224,2.5274,2.5281,2.5218,2.533,2.5356,2.5514,2.5607,2.5438,2.5449,2.5936,2.5946,2.5955,2.6064,0,0,0,0,0,0,2.4866,2.4904,2.4976,2.5042,2.5077,2.5292,2.5182,2.5186,2.5244,2.5234,2.5315,2.5323,2.5328,2.5496,2.5527,2.5621,2.5459,2.5928,2.594,2.5952,2.6052,2.6076,2.6097,0,0,0,0,0,2.4854,2.5005,2.498,2.501,2.5167,2.5298,2.5318,2.5317,2.5252,2.5325,2.5357,2.532,2.5592,2.5513,2.5547,2.5647,2.5922,2.5937,2.5951,2.6042,2.6072,2.6096,0,0,0,0,0,0,2.4955,2.5013,2.4986,2.5162,2.5224,2.5285,2.5378,2.5349,2.5435,2.5423,2.5422,2.5441,2.5604,2.5641,2.5552,2.5836,2.5747,2.5769,2.5806,2.5834,2.5855,2.5844,2.5469,0,0,0,0,0,2.4996,2.5094,2.5141,2.5292,2.5324,2.5345,2.5403,2.5395,2.5462,2.549,2.5533,2.5603,2.5704,2.5771,2.5867,2.6057,2.6073,2.6142,2.6164,2.6182,2.6201,2.6301,2.6332,2.6005,2.6005,2.6005,0,0,2.5086,2.5129,2.5192,2.5313,2.536,2.5463,2.5369,2.5484,2.556,2.5509,2.5659,2.5693,2.5771,2.5944,2.6023,2.5981,2.6294,2.62,2.6214,2.6224,2.6319,2.635,2.6377,2.6015,2.6013,2.6012,0,0,2.53,2.5343,2.5471,2.5519,2.5589,2.5602,2.5632,2.5696,2.5715,2.5864,2.5826,2.592,2.6094,2.6149,2.6201,2.643,2.6399,2.6462,2.6578,2.6675,2.6701,2.6724,2.6804,2.6833,2.648,2.6481,2.6481,0,2.5404,2.5553,2.5542,2.5657,2.5711,2.5662,2.5792,2.5841,2.5942,2.5982,2.5931,2.6144,2.6194,2.6378,2.6433,2.6477,2.6512,2.6453,2.6697,2.672,2.6741,2.6818,2.6848,2.6488,2.6487,2.6486,2.6485,0,2.5676,2.578,2.5876,2.5966,2.6031,2.6154,2.6163,2.6231,2.6217,2.6235,2.6387,2.6443,2.6547,2.659,2.6581,2.6773,2.6743,2.6695,2.6607,2.6779,2.6851,2.6881,2.6498,2.6495,2.6493,2.6491,0,0,2.5963,2.604,2.6075,2.6114,2.6186,2.6268,2.6388,2.6484,2.6541,2.6612,2.6713,2.6858,2.6811,2.687,2.6866,2.6951,2.7125,2.6892,2.6894,2.6932,2.7338,2.7373,2.7407,2.7104,2.711,2.7114,2.7331,0,2.6181,2.6385,2.6376,2.6569,2.6664,2.6617,2.6721,2.6778,2.6797,2.6883,2.6907,2.7008,2.6941,2.6975,2.7057,2.7087,2.7207,2.7071,2.72,2.7205,2.7182,2.7445,2.7484,2.7686,2.7359,2.7364,2.7367,0,2.6464,2.6536,2.6736,2.6788,2.6828,2.6922,2.7006,2.7089,2.7152,2.716,2.7221,2.7202,2.7325,2.723,2.74,2.7308,2.736,2.7382,2.739,2.7403,2.7297,2.7465,2.7751,2.7781,2.7412,2.7408,2.7405,0,2.6651,2.6798,2.6936,2.6971,2.7036,2.7102,2.7134,2.719,2.7246,2.7322,2.7359,2.745,2.75,2.7572,2.7578,2.7509,2.7749,2.7656,2.776,2.776,2.7814,2.7811,2.8112,2.7848,2.7848,2.7847,2.7846,0,2.6896,2.702,2.7019,2.7104,2.7242,2.723,2.7368,2.7393,2.7442,2.7533,2.7499,2.7586,2.7588,2.7677,2.7683,2.7821,2.7845,2.7856,2.7856,2.7859,2.7857,2.7894,2.788,2.7855,2.7853,2.7852,2.785,0,2.7129,2.7133,2.7279,2.7326,2.7341,2.744,2.7481,2.7563,2.7576,2.7691,2.7718,2.7741,2.7843,2.7855,2.7977,2.798,2.8147,2.8132,2.8124,2.8121,2.8224,2.8214,2.856,2.8604,2.8312,2.8314,2.8317,0,2.7284,2.7377,2.7432,2.7486,2.7519,2.761,2.7665,2.7657,2.7717,2.7792,2.7865,2.7962,2.8039,2.8205,2.8235,2.8327,2.8314,2.8429,2.8329,2.8327,2.8315,2.8309,2.8318,2.8449,2.8452,2.8455,2.8457,0,2.756,2.7556,2.7634,2.7713,2.7778,2.7841,2.79,2.7948,2.7947,2.8017,2.8117,2.8176,2.8295,2.8393,2.8482,2.8517,2.8488,2.8487,2.8516,2.8521,2.8511,2.8516,2.8176,2.8481,2.8478,2.8477,2.8475,2.8474,2.7759,2.7837,2.7886,2.7973,2.8015,2.8069,2.8146,2.8166,2.8248,2.8341,2.8332,2.8443,2.8501,2.8616,2.8657,2.8745,2.8708,2.875,2.8761,2.8772,2.8781,2.8496,2.8762,2.8762,2.8761,2.876,2.876,0,2.8031,2.8058,2.8138,2.8218,2.8287,2.8246,2.8308,2.8369,2.8465,2.8519,2.8593,2.8707,2.88,2.8835,2.8925,2.8989,2.8978,2.9014,2.9009,2.9017,2.881,2.8775,2.9021,2.9021,2.9021,2.9021,2.9021,2.9021,2.8181,2.8311,2.8312,2.8462,2.8489,2.8592,2.8631,2.8681,2.8723,2.885,2.8924,2.8944,2.899,2.9083,2.9166,2.9174,2.9209,2.925,2.9253,2.9059,2.9033,2.9008,2.8975,2.9258,2.9258,2.9452,2.9454,2.9456]},{"header":{"parameterUnit":"m.s-1","parameterCategory":1,"la1":30.2991,"la2":30.254,"lo1":-89.0895,"lo2":-89.0444,"dy":0.0017,"dx":0.0017,"nx":28,"ny":28,"refTime":"2025-06-19T21:00:00:Z","depth":0,"parameterNumber":3,"parameterNumberName":"V-component_of_WINDS"},"data":[0,0,0,0,0,0,0,0,0,0,0,0,0,0,0,0,0,0,0,0,0,0,0,0,0,0,0,0,0,0,0,0,0,0,0,0,0,0,0,0,0,0,0,0,0,0,0,0,0,0,0,0,0,0,0,0,0,0,2.8084,2.8084,0,2.8068,2.8068,2.8068,2.7983,2.7981,2.7979,2.7977,2.7961,2.7962,2.7964,0,0,0,0,0,0,0,0,0,0,0,0,0,2.8042,2.8043,2.8084,2.8084,2.8084,2.8068,2.8068,2.8068,2.7983,2.7981,2.7978,2.7976,2.796,2.7962,2.7964,0,0,0,0,0,0,0,0,0,0,0,0,0,2.8046,2.8043,2.8084,2.804,2.8036,2.8068,2.8068,2.8068,2.7984,2.7981,2.7978,2.7975,2.796,2.7962,2.7964,2.8038,0,0,2.7971,2.7972,0,0,0,0,0,0,0,0,2.8046,2.8048,2.8046,2.8043,2.8038,2.8024,2.8047,2.8058,2.7985,2.8003,2.7977,2.7973,2.7985,2.7984,2.7988,2.8038,2.8037,2.7971,2.7972,2.7973,2.7974,0,0,0,0,0,0,0,2.8046,2.8048,2.8078,2.8047,2.8042,2.8021,2.8018,2.8049,2.8011,2.8002,2.7995,2.7995,2.7982,2.7986,2.7987,2.8037,2.7971,2.7973,2.7974,2.7975,2.8147,2.815,0,0,0,0,0,0,2.8052,2.8048,2.8078,2.8077,2.8035,2.8024,2.8021,2.8032,2.8011,2.8004,2.7997,2.7991,2.7984,2.7985,2.7986,2.8072,2.7973,2.7975,2.7977,2.8144,2.8147,2.8151,0,0,0,0,0,0,2.8051,2.8055,2.8079,2.8061,2.8063,2.8028,2.8041,2.8033,2.8038,2.8007,2.8,2.8009,2.7982,2.7983,2.8026,2.807,2.7976,2.7978,2.814,2.8145,2.8149,2.8245,0,0,0,0,0,0,2.805,2.8056,2.8083,2.8062,2.8064,2.8119,2.8044,2.8035,2.8042,2.8033,2.8016,2.8011,2.7979,2.8023,2.8028,2.8072,2.798,2.8136,2.8142,2.8148,2.8237,2.8252,2.8265,0,0,0,0,0,2.8049,2.8111,2.8085,2.8089,2.8098,2.8122,2.8123,2.8085,2.8046,2.8073,2.8054,2.8011,2.8065,2.8028,2.8033,2.8078,2.8133,2.814,2.8147,2.8231,2.8249,2.8264,0,0,0,0,0,0,2.8138,2.8107,2.8079,2.8135,2.8132,2.8108,2.8141,2.8106,2.8114,2.8105,2.8058,2.8055,2.8106,2.8096,2.8056,2.8149,2.8091,2.81,2.8154,2.817,2.8184,2.8185,2.7982,0,0,0,0,0,2.8164,2.8186,2.8158,2.8211,2.8211,2.8177,2.8186,2.8157,2.8152,2.815,2.8134,2.813,2.8146,2.8158,2.817,2.8235,2.8231,2.8268,2.8282,2.8294,2.8302,2.8336,2.8352,2.8175,2.8175,2.8175,0,0,2.8218,2.8204,2.8221,2.8228,2.8222,2.8246,2.8176,2.8204,2.8222,2.8154,2.8194,2.8182,2.8175,2.8229,2.8252,2.8223,2.835,2.8303,2.8312,2.8314,2.8345,2.8362,2.8377,2.818,2.8179,2.8178,0,0,2.833,2.8321,2.8364,2.836,2.8352,2.8329,2.8339,2.8321,2.831,2.8349,2.8299,2.8319,2.8347,2.8345,2.8347,2.8458,2.8419,2.8463,2.8535,2.8569,2.8583,2.8595,2.8635,2.865,2.8471,2.8472,2.8472,0,2.8398,2.8432,2.8391,2.8423,2.8428,2.8368,2.8411,2.8409,2.8406,2.8411,2.8377,2.8412,2.8403,2.8456,2.8483,2.8487,2.8498,2.8465,2.8584,2.8596,2.8607,2.8644,2.8659,2.8477,2.8477,2.8476,2.8475,0,2.8517,2.8542,2.8578,2.8576,2.8585,2.8623,2.8587,2.8601,2.8572,2.8553,2.8593,2.8581,2.859,2.86,2.8572,2.865,2.8632,2.8592,2.8534,2.863,2.8664,2.8678,2.8485,2.8483,2.8481,2.848,0,0,2.8684,2.8659,2.8673,2.8672,2.8659,2.8677,2.8712,2.8721,2.8734,2.8734,2.8763,2.8788,2.8751,2.8754,2.8725,2.8755,2.8844,2.8711,2.871,2.8737,2.8929,2.896,2.8977,2.8818,2.8821,2.8823,2.893,0,2.8791,2.8849,2.8813,2.8877,2.8899,2.8843,2.8873,2.8869,2.8852,2.8868,2.8849,2.8869,2.8818,2.882,2.8846,2.8828,2.8882,2.8819,2.8845,2.8846,2.8849,2.8995,2.9027,2.9129,2.8943,2.8946,2.8947,0,2.8923,2.8929,2.8995,2.8978,2.8986,2.9014,2.902,2.9036,2.903,2.9016,2.9019,2.8983,2.9016,2.8958,2.9004,2.8962,2.897,2.8963,2.8966,2.8967,2.8903,2.9001,2.916,2.9176,2.8968,2.8966,2.8965,0,2.9039,2.9063,2.9106,2.9106,2.9087,2.9108,2.9102,2.9092,2.91,2.9106,2.911,2.912,2.9125,2.9133,2.91,2.9061,2.915,2.9089,2.914,2.9141,2.9161,2.916,2.9325,2.9166,2.9166,2.9166,2.9165,0,2.9162,2.9205,2.9157,2.9184,2.923,2.9189,2.9236,2.9223,2.9215,2.9239,2.919,2.9213,2.9168,2.9187,2.9161,2.9203,2.9206,2.9195,2.9188,2.92,2.9201,2.9205,2.9197,2.917,2.9169,2.9168,2.9167,0,2.9299,2.9269,2.9312,2.929,2.9286,2.9321,2.9303,2.9327,2.9306,2.9336,2.9341,2.9309,2.9328,2.9297,2.9312,2.9295,2.9353,2.9335,2.9356,2.935,2.9403,2.9398,2.9575,2.9597,2.9424,2.9426,2.9427,0,2.9379,2.9411,2.9393,2.9405,2.9401,2.9421,2.9429,2.9389,2.94,2.9396,2.942,2.9435,2.9445,2.9478,2.9457,2.9469,2.945,2.9512,2.9452,2.9463,2.9452,2.9451,2.9454,2.9524,2.9526,2.9528,2.9529,0,2.9526,2.9509,2.9523,2.9532,2.9543,2.9548,2.9549,2.9562,2.952,2.9534,2.9553,2.9561,2.9577,2.9593,2.9599,2.9592,2.9554,2.9548,2.9561,2.9573,2.9584,2.9579,2.939,2.9545,2.9543,2.9542,2.9541,2.954,2.9637,2.9663,2.9654,2.9671,2.9668,2.9671,2.9692,2.9675,2.969,2.97,2.9675,2.9701,2.9694,2.9699,2.9696,2.9715,2.9688,2.9706,2.971,2.9715,2.9724,2.9581,2.9716,2.9715,2.9715,2.9715,2.9714,0,2.9781,2.9773,2.9789,2.9793,2.9806,2.9769,2.9769,2.9783,2.9805,2.9802,2.9813,2.9836,2.9851,2.9831,2.9843,2.9862,2.9845,2.9867,2.9865,2.9864,2.9747,2.9735,2.988,2.988,2.988,2.988,2.988,2.988,2.9858,2.9899,2.9882,2.9922,2.9914,2.9938,2.9941,2.9944,2.9941,2.9968,2.9981,2.9967,2.9958,2.9969,2.9981,2.9975,2.9982,3.001,2.9997,2.9888,2.9872,2.9857,2.9846,3.0011,3.0011,3.0113,3.0114,3.0114]}]]